Regional Weather Roundup
Issued by NWS Grand Forks, ND

Home | Current Version | Previous Version | Text Only | Print | Product List | Glossary On
Versions: 1 2 3 4 5 6 7 8 9 10 11 12 13 14 15 16 17 18 19 20 21 22 23 24 25 26 27 28 29 30 31 32 33 34 35 36 37 38 39 40 41 42 43 44 45 46 47 48 49 50
000
ASUS43 KFGF 231010
RWRFGF
PRAIRIE TO PINES  WEATHER ROUNDUP
NATIONAL WEATHER SERVICE EASTERN NORTH DAKOTA/GRAND FORKS ND
500 AM CDT THU OCT 23 2014

 **SATELLITE DATA USED TO AUGMENT SKY COVER AT AUTOMATED STATIONS**
 *****  WEATHER ACROSS EASTERN NORTH DAKOTA  *****

CITY           SKY/WX    TMP DP  RH WIND       PRES   REMARKS
GRAND FORKS    CLOUDY    51  46  83 SW7       29.83S
GRAND FRKS AFB PTCLDY    49  49  98 SW8       29.83S
GRAND FRKS NWS   N/A     48 N/A N/A SW7         N/A
DEVILS LAKE    CLEAR     48  37  66 SW10      29.82S
FARGO          CLEAR     45  42  89 S8        29.89S
WAHPETON ARPT    N/A     37  36  93 CALM      29.92S VSB 3/4
$$

 ***** WEATHER ACROSS CENTRAL AND WESTERN NORTH DAKOTA  *****

CITY           SKY/WX    TMP DP  RH WIND       PRES   REMARKS
BISMARCK       CLEAR     35  32  88 CALM      29.92S
MINOT          CLEAR     46  34  62 SW16      29.84R
JAMESTOWN      CLEAR     42  36  79 W7        29.89S
MINOT AFB      CLEAR     43  35  72 SW13      29.83R
GARRISON         N/A     41  37  86 W5        29.87S
WILLISTON      CLEAR     36  31  82 S3        29.85F
DICKINSON      CLEAR     43  27  53 S5        29.88F
HETTINGER      CLEAR     29  23  78 CALM      29.94F
$$

 *****  OTHER AIRPORT OBSERVATIONS IN OUR AREA  *****

CITY           SKY/WX    TMP DP  RH WIND       PRES   REMARKS
WALHALLA         N/A     52  48  87 SW14G20   29.78S
GRAFTON AIRPOR FAIR      45  45 100 SW6       29.81S
VALLEY CITY AR FAIR      45  41  87 W12       29.89R
CANDO          FAIR      39  37  93 SW7       29.83R
CAVALIER APRT  FAIR      48  45  87 SW7       29.79S
GWINNER        SUNNY     43  43 100 SW12      29.93S
ROLLA          FAIR      41  41 100 SW8       29.81S
 ***** THE ABOVE OBSERVATIONS ARE NON NWS ARE NOT QUALITY
       CONTROLLED AND MAY MIS-REPORT RAIN FOR SNOW...
$$

  *****  WEATHER ACROSS NORTHERN MINNESOTA  *****

CITY           SKY/WX    TMP DP  RH WIND       PRES   REMARKS
FLAG ISLAND    CLOUDY    50  48  93 S10       29.80S FOG
WARROAD        MOCLDY    48  45  87 S7        29.83R
ROSEAU         MOCLDY    48  45  87 S9        29.82R
HALLOCK        PTCLDY    46  45  93 S6        29.80S
THF RVR FALLS  CLOUDY    46  45  93 S7        29.86R
BAUDETTE       MOCLDY    48  46  93 S5        29.85S
WASKISH        PTCLDY    48  46  93 CALM      29.87R
CROOKSTON      CLOUDY    48  45  87 S9        29.86S
STEPHEN NDAWN    N/A     46  45  93 S7          N/A
GREENBUSH NDAW   N/A     46  45  93 S7          N/A
$$
  *****  WEATHER ACROSS CENTRAL AND WEST MINNESOTA  *****

CITY           SKY/WX    TMP DP  RH WIND       PRES   REMARKS
FOSSTON        CLEAR     45  45 100 S12       29.89R
BEMIDJI        CLEAR     48  48  98 S6        29.88S FOG
PARK RAPIDS    CLOUDY    51  50  96 SW7       29.91S
ELBOW LAKE     FAIR      43  43 100 S6        29.93S FOG
WADENA         DRZL/FOG  48  46  93 S5        29.92S VSB 1/4
DETROIT LAKES  CLEAR     48  46  93 S6        29.92R
MOORHEAD       CLEAR     45  45 100 S9        29.91R
FERGUS FALLS   FOG       45  43  93 S6        29.94S VSB 1
MORRIS MN      FOG       43  43 100 S6        29.93F VSB<1/4
STAPLES        FOG       50  50 100 S5        29.93S VSB 1/4
$$
  *****  WEATHER ELSEWHERE ACROSS MINNESOTA  *****

CITY           SKY/WX    TMP DP  RH WIND       PRES   REMARKS
DULUTH         LGT RAIN  50  41  71 S9        29.96S
INTRNTL FALLS  CLOUDY    49  47  93 VRB5      29.87F
ELY            NOT AVBL
CLOQUET        LGT RAIN  48  43  81 S5        29.96S
WHEATON        CLEAR     45  43  93 SW7       29.95S
BRAINERD       CLOUDY    49  49 100 S7        29.94F FOG
HIBBING        LGT RAIN  47  44  90 S5        29.94S
ALEXANDRIA     FOG       50  49  96 SW8       29.95S VSB 1/2
SAINT CLOUD    CLOUDY    54  52  93 S5        29.95F FOG
MINNEAPOLIS    CLOUDY    51  49  92 S3        30.00S
$$

  *****  WEATHER ACROSS SOUTH DAKOTA  *****

CITY           SKY/WX    TMP DP  RH WIND       PRES   REMARKS
SIOUX FALLS    FOG       45  45 100 CALM      30.01S VSB 1/16
BROOKINGS      NOT AVBL
WATERTOWN      PTCLDY    40  39  97 SE6       29.96F FOG
HURON          CLEAR     39  38  96 CALM      29.98R
SISSETON         N/A     49  42  77 W12       29.92S
ABERDEEN       CLEAR     36  34  92 S9        29.95S
MITCHELL       CLEAR     46  43  89 SW6       30.00S
PIERRE         CLEAR     45  34  65 SW6       29.96F
MOBRIDGE       CLEAR     37  32  82 E5        29.92F
RAPID CITY     CLEAR     35  27  72 CALM      29.98F
$$

  *****  SOME WEATHER IN NEARBY STATES *****

CITY           SKY/WX    TMP DP  RH WIND       PRES   REMARKS
GLASGOW MT     CLEAR     37  33  85 SE12      29.80F
GREAT FALLS MT CLOUDY    50  32  50 S14       29.81S
CHEYENNE WY    CLEAR     37  30  75 W7        30.15F
SCOTTSBLUFF NE PTCLDY    33  28  81 CALM      30.10F
OMAHA NE       CLOUDY    62  59  90 S6        30.03S
DES MOINES IA  CLOUDY    53  49  86 S12       30.04F
DAVENPORT IA   MOCLDY    42  35  76 S9        30.16S
CHICAGO IL     CLEAR     37  35  92 S6        30.21F
EAU CLAIRE WI  CLOUDY    49  42  77 SE8       30.05S
LA CROSSE WI   LGT RAIN  51  43  74 SE3       30.08F
$$

  *****  SOME NATIONAL WEATHER *****

CITY           SKY/WX    TMP DP  RH WIND       PRES   REMARKS
LA GUARDIA NY  CLOUDY    52  47  83 N12G22    29.70R
RALEIGH NC     CLEAR     46  39  76 VRB3      30.00S
ATLANTA GA     CLEAR     46  41  82 N6        30.10S
NEW ORLEANS LA CLEAR     63  49  60 E9        30.05S
OKLAHOMA CITY  CLOUDY    62  57  83 S8        30.10R
ALBUQUERQUE NM CLEAR     56  43  61 CALM      30.21S
SALT LAKE CITY PTCLDY    46  33  60 SE9       30.15F
LOS ANGELES CA CLEAR     62  62 100 E3        29.94F
BOISE ID       LGT RAIN  55  44  66 W5        30.00R
SEATTLE WA     MOCLDY    52  49  89 S9        29.74F
$$

*** WEATHER ACROSS MANITOBA...SASKATCHEWAN AND ONTARIO ***
                ***ONTARIO***

CITY           SKY/WX    TMP DP  RH WIND       PRES   REMARKS
GERALDTON      CLOUDY    39  37  93 S9        30.06S
THUNDER BAY    CLOUDY    45  43  93 E6        30.04F
SIOUX LOOKOUT  LGT RAIN  48  41  76 S8        29.87S
TORONTO        CLEAR     43  39  87 N12       30.20S
BIG TROUT LK   MOCLDY    45  39  81 S8        29.79S
PICKLE LAKE    NOT AVBL
DRYDEN         CLOUDY    48  45  87 S10       29.84F
KENORA         CLOUDY    52  48  87 S10       29.80F
$$
                *** MANITOBA***

CITY           SKY/WX    TMP DP  RH WIND       PRES   REMARKS
BRANDON        PTCLDY    43  43 100 SW12      29.76S
DAUPHIN        CLOUDY    52  46  82 W9        29.70R
ISLAND LAKE    LGT RAIN  50  50 100 SE6       29.65F
PILOT MOUND      N/A     41  39  93 SW7         N/A
THE PAS        CLOUDY    46  43  87 NE3       29.67F
THOMPSON       LGT RAIN  39  39 100 NE16      29.74S
WINNIPEG       MOCLDY    50  46  87 SW12G20   29.76R
LYNN LAKE      LGT RAIN  37  37 100 E10       29.80S VSB 1
CHURCHILL      CLOUDY    37  37 100 NE16      29.94R
GILLAM         DRIZZLE   37  37 100 NE16G24   29.78F FOG
$$
                ***SASKATCHEWAN***

CITY           SKY/WX    TMP DP  RH WIND       PRES   REMARKS
ESTEVAN        PTCLDY    36  32  87 SW8       29.80F
KINDERSLEY     PTCLDY    43  36  75 S10       29.63F
LLOYDMINSTER   CLEAR     39  34  81 SE10      29.54F
PRINCE ALBERT  FOG       30  30 100 CALM      29.72S VSB 1/4
REGINA         CLEAR     34  32  93 E6        29.76F
YORKTON        CLOUDY    48  45  87 W9        29.73S
N. BATTLEFORD  CLEAR     45  36  70 E15       29.64F
LA RONGE       FOG       43  43 100 NE6       29.71F VSB 1/2
SASKATOON      PTCLDY    32  32 100 SE3       29.71F
SWIFT CURRENT  CLEAR     41  36  81 S14       29.70F
$$
NOTE: THESE ARE AUTOMATED STATIONS WITH LIMITED QUALITY CONTROL
      "FAIR" INDICATES FEW OR NO CLOUDS BELOW 12,000 FEET WITH NO
      SIGNIFICANT WEATHER AND/OR OBSTRUCTIONS TO VISIBILITY.
      SKY/WX - SKY CONDITION AND SIGNIFICANT WEATHER.
      TMP - AIR TEMPERATURE.    DP   - DEWPOINT TEMPERATURE.
      RH  - RELATIVE HUMIDITY.  PRES - PRESSURE.
      HX  - HEAT INDEX.         WCI  - WIND CHILL INDEX.
$



USA.gov is the U.S. government's official web portal to all federal, state and local government web resources and services.